{"data":{"norad_id":67904,"epoch":"2026-09-19T22:16:29.036640Z","epoch_age_seconds":112691,"freshness":"FRESH","line1":"1 67904U 26036A   26262.92811385  .00010405  00000+0  38694-3 0  9990","line2":"2 67904  42.9987 228.7440 0000214 232.8634 127.2198 15.27591777 33422","mean_motion":15.27591777,"eccentricity":2.14e-5,"inclination_deg":42.9987,"raan_deg":228.744,"arg_perigee_deg":232.8634,"mean_anomaly_deg":127.2198,"bstar":0.00038694,"rev_number":3342,"period_min":94.266021962227,"perigee_km":482.86700306366,"apogee_km":483.16066031926,"semimajor_km":6861.1508316915,"source":"CELESTRAK","updated_at":"2026-09-20T09:00:43.700794Z"}}